User: anonymous
Location: Unspecified
(0.0000°N, 0.0000°E)
Time: 21:16:07
(UTC+00:00)
Language:

RISAT 1 - Orbit

View from above orbital plane
View from above orbital plane
View from above satellite
View from above satellite

Ground track
Ground track

The orbit data is extracted from the following two-line orbital elements,

1 38248U 12017A   14211.38327296  .00000555  00000-0  39132-4 0  5572
2 38248 097.5607 217.9316 0004081 083.6707 025.9739 15.08943541124477
Epoch (UTC): 30 July 2014 09:11:54
Eccentricity: 0.0004081
inclination: 97.5607°
perigee height: 536 km
apogee height: 542 km
right ascension of ascending node: 217.9316°
argument of perigee: 83.6707°
revolutions per day: 15.08943541
mean anomaly at epoch: 25.9739°
orbit number at epoch: 12447

The dashed part of the orbit path shows where the satellite is in the earth's shadow,  

DLR